Location: Red Bud (historical)
(37.7759°N, 88.4053°W)
Time: 21:15:47
(UTC+00:00)

Nauka - Pass Details

Date: 21 September 2021
Orbit: 417 x 423 km, 51.6° (Epoch: 26 October)

Event Time Altitude Azimuth Distance (km) Brightness Sun altitude
Rises 00:59:58 0° 269° (W) 2,355 ? -13.9°
Reaches altitude 10° 01:02:31 10° 289° (WNW) 1,495 ? -14.4°
Maximum altitude 01:04:55 18° 335° (NNW) 1,104 ? -14.9°
Drops below altitude 10° 01:07:20 10° 21° (NNE) 1,501 ? -15.4°
Enters shadow 01:08:29 - 32° (NNE) 1,865 ? -15.6°
